This demonstration page uses our WeatherBlox Daily Observations layout. Learn more.

Left ArrowRight Arrow

36.17497, -115.13722

Hourly Observations for October 1, 2019

Temp ( °F °C ) Dew Point ( °F °C ) Humidity (%) Winds ( mph kmh ) Pressure ( in mb ) Visibility ( mi km ) Precip ( " mm )
12:53 am 00:53 Clear 60 15.6 13 -10.6 16 16 NW 6 9 29.77 1008 10 16.0934 N/A
1:53 am 01:53 Clear 59 15 13 -10.6 16 16 SW 5 7 29.77 1008 10 16.0934 N/A
2:53 am 02:53 Clear 57 13.9 14 -10 18 18 N N/A 29.77 1008 10 16.0934 N/A
3:53 am 03:53 Clear 56 13.3 13 -10.6 18 18 N N/A 29.77 1008 10 16.0934 N/A
4:53 am 04:53 Clear 54 12.2 15 -9.4 21 21 WNW 3 6 29.78 1008 10 16.0934 N/A
5:53 am 05:53 Clear 54 12.2 16 -8.9 22 22 W 7 11 29.79 1009 10 16.0934 N/A
6:53 am 06:53 Sunny 58 14.4 12 -11.1 16 16 WNW 9 15 29.81 1010 10 16.0934 N/A
7:53 am 07:53 Sunny 61 16.1 14 -10 16 16 NW 10 17 29.83 1010 10 16.0934 N/A
8:53 am 08:53 Sunny 63 17.2 16 -8.9 16 16 NNW 8 13 29.84 1011 10 16.0934 N/A
9:53 am 09:53 Sunny 66 18.9 17 -8.3 15 15 NW 8 13 29.85 1011 10 16.0934 N/A
10:53 am 10:53 Sunny 70 21.1 16 -8.9 12 12 NE 3 6 29.85 1011 10 16.0934 N/A
11:53 am 11:53 Sunny 71 21.7 16 -8.9 12 12 ESE 6 9 29.84 1011 10 16.0934 N/A
12:53 pm 12:53 Sunny 73 22.8 18 -7.8 12 12 SE 9 15 29.83 1010 10 16.0934 N/A
1:53 pm 13:53 Sunny 75 23.9 19 -7.2 12 12 N N/A 29.8 1009 10 16.0934 N/A
2:53 pm 14:53 Sunny 76 24.4 20 -6.7 12 12 ESE 6 9 29.79 1009 10 16.0934 N/A
3:53 pm 15:53 Sunny 77 25 20 -6.7 12 12 ESE 6 9 29.78 1008 10 16.0934 N/A
4:53 pm 16:53 Sunny 78 25.6 11 -11.7 8 8 SW 15 24 29.78 1008 10 16.0934 N/A
5:53 pm 17:53 Sunny 75 23.9 14 -10 10 10 SSW 13 20 29.79 1009 10 16.0934 N/A
6:53 pm 18:53 Clear 73 22.8 15 -9.4 11 11 SSW 14 22 29.8 1009 10 16.0934 N/A
7:53 pm 19:53 Clear 71 21.7 15 -9.4 12 12 NNW 14 22 29.83 1010 10 16.0934 N/A
8:53 pm 20:53 Clear 70 21.1 14 -10 11 11 NW 16 26 29.84 1011 10 16.0934 N/A
9:53 pm 21:53 Clear 67 19.4 14 -10 13 13 NW 15 24 29.86 1011 10 16.0934 N/A
10:53 pm 22:53 Clear 66 18.9 15 -9.4 14 14 NW 15 24 29.88 1012 10 16.0934 N/A
11:53 pm 23:53 Clear 66 18.9 15 -9.4 14 14 NW 13 20 29.9 1013 10 16.0934 N/A

Powered by AerisWeather